Regional Weather Roundup
Issued by NWS Lake Charles, LA

Home | Current Version | Previous Version | Text Only | Print | Product List | Glossary On
Versions: 1 2 3 4 5 6 7 8 9 10 11 12 13 14 15 16 17 18 19 20 21 22 23 24 25 26 27 28 29 30 31 32 33 34 35 36 37 38 39 40 41 42 43 44 45 46 47 48 49 50
000
ASUS44 KLCH 282010
RWRLCH
RWRLCH
REGIONAL WEATHER ROUNDUP
NATIONAL WEATHER SERVICE LAKE CHARLES LA
300 PM CDT FRI AUG 28 2015

Note: "fair" indicates few or no clouds below 12,000 feet with no
significant weather and/or obstructions to visibility.


ACROSS SOUTHEAST TEXAS

CITY           SKY/WX    TMP DP  RH WIND       PRES   REMARKS
BEAUMONT       MOSUNNY   89  66  46 SE6       29.97F
BEAUMONT CITY  MOCLDY    89  67  48 S3        29.98F
ORANGE         PTCLDY    88  60  38 CALM      29.99F
JASPER         SUNNY     91  63  38 SW5       30.00F
$$

ACROSS CENTRAL LOUISIANA

CITY           SKY/WX    TMP DP  RH WIND       PRES   REMARKS
LEESVILLE      SUNNY     89  60  38 VRB5      29.97F
FULLERTON        N/A     92  54  27 N5        29.95F
ALEXANDRIA INT SUNNY     90  57  32 VRB3      29.97F
ESLER FIELD    SUNNY     92  58  31 S6        29.97F
DERIDDER         N/A     91  55  28 E8        30.00F
OAKDALE          N/A     89  59  36 CALM      29.98F
OPELOUSAS        N/A     89  58  35 NE3       29.98F
$$

ACROSS SOUTHWEST AND SOUTH CENTRAL LOUISIANA

CITY           SKY/WX    TMP DP  RH WIND       PRES   REMARKS
SULPHUR        CLEAR     90  57  32 CALM      29.99F
LAKE CHARLES   SUNNY     88  59  37 VRB5      29.98F
CHENNAULT INT  NOT AVBL
CAMERON PHI    CLEAR     86  64  48 S9        30.02S
DEQUINCY         N/A     87  57  36 CALM      29.99S
JENNINGS         N/A     87  58  38 E8        29.98F
LAFAYETTE      MOSUNNY   88  60  38 CALM      29.98F
NEW IBERIA     SUNNY     91  61  36 NE6       29.99F
ABBEVILLE        N/A     87  59  38 CALM      29.98F
PATTERSON      SUNNY     88  63  42 CALM      29.99F
SALT POINT       N/A     87  65  47 VRB6      29.96F
$$

SELECTED SITES ACROSS THE REGION

CITY           SKY/WX    TMP DP  RH WIND       PRES   REMARKS
HOUSTON BUSH   MOSUNNY   89  67  47 CALM      29.98F
HOUSTON HOBBY  MOSUNNY   88  65  46 CALM      29.97F
GALVESTON      SUNNY     88  70  55 SE9       30.00F
COLLEGE STAT   SUNNY     91  62  37 VRB3      29.97F
CONROE         SUNNY     91  60  35 CALM      29.98F
HUNTSVILLE     SUNNY     94  62  34 CALM      29.97F
LUFKIN         SUNNY     91  62  37 NW7       29.98F
SHREVEPORT     SUNNY     91  58  32 CALM      29.99F
MONROE         SUNNY     91  58  32 CALM      29.99F
NATCHEZ MS     SUNNY     88  57  35 NE3       29.99F
BATON ROUGE    SUNNY     88  61  40 CALM      29.98F
N.O. INTL ARPT MOSUNNY   90  63  40 NE8       29.96F
SLIDELL        PTSUNNY   90  69  50 NE6       29.95F
$$

MARINE REPORTS

STATION/POSITION TIME  TEMP    WIND        PRES    VSBY  WAVE
                       AIR SEA DIR/SP/G                  HT/PER
                 (UTC) (F)     (DEG/KT/KT) (MB)    (MI)  (FT/S)
BUOY 30 S HIGH I 1950   83 87   90/  4/  6 1015.4F         1/ 4
SEA RIM ST PARK  2000   84     160/  7/ 10 1016.0F
PORT ARTHUR      NOT AVBL
SABINE PASS N    NOT AVBL
TEXAS POINT      NOT AVBL
CALCASIEU PASS   NOT AVBL
LK CHARLES BEACH NOT AVBL
MARSH ISLAND     1900   83     130/  4/  5   N/A           0
FRESH WATER LOCK NOT AVBL
AMERADA PASS     NOT AVBL
$$



USA.gov is the U.S. government's official web portal to all federal, state and local government web resources and services.